Prairie Du Chien, WI

4:24 PM CST on December 05, 2019 (GMT -0600)
Prairie Du Chien Municipal

Weather History for KPDC - November, 2019

Change the Weather History Date:

Thursday, November 14, 2019

  Actual Average Record
Temperature  
Mean Temperature 25 °F -  
Max Temperature 30 °F 45 °F 71 °F (1990)
Min Temperature 19 °F 27 °F 7 °F (1959)
Degree Days  
Heating Degree Days 40    
Moisture  
Dew Point 19 °F    
Average Humidity 74    
Maximum Humidity 92    
Minimum Humidity 62    
Precipitation  
Precipitation 0.00 in - - ()
Sea Level Pressure  
Sea Level Pressure 30.23 in    
Wind  
Wind Speed 3 mph (West)    
Max Wind Speed 10 mph    
Max Gust Speed -    
Visibility 10 miles    
Events      
Averages and records for this station are not official NWS values.
T = Trace of Precipitation, MM = Missing Value Source: NWS Daily Summary

Daily Weather History Graph

Daily Weather History Graph

Search for Another Location

Airport or City:

Astronomy

Nov. 14, 2019 Rise Set
Actual Time 6:55 AM CST 4:41 PM CST
Civil Twilight 6:24 AM CST 5:12 PM CST
Nautical Twilight 5:50 AM CST 5:46 PM CST
Astronomical Twilight 5:17 AM CST 6:20 PM CST
Moon 6:25 PM CST (11/14) 8:52 AM CST (11/14)
Length of Visible Light 10h 47m
Length of Day
9h 46m
Waning Gibbous, 95% of the Moon is Illuminated
Nov 14
Waning Gibbous
Nov 19
Last Quarter
Nov 26
New
Dec 4
First Quarter
Dec 11
Full

Hourly Weather History & Observations

Time (CST) Temp. Windchill Dew Point Humidity Pressure Visibility Wind Dir Wind Speed Gust Speed Precip Events Conditions
12:15 AM 25.9 °F - 23.9 °F 92% 30.08 in 10.0 mi Calm Calm - N/A   Overcast
12:35 AM 25.9 °F - 23.9 °F 92% 30.08 in 10.0 mi Calm Calm - N/A   Overcast
12:55 AM 26.2 °F - 24.3 °F 92% 30.09 in 7.0 mi Calm Calm - N/A   Overcast
1:15 AM 26.4 °F - 24.3 °F 92% 30.09 in 7.0 mi Calm Calm - N/A   Overcast
1:35 AM 26.2 °F - 24.3 °F 92% 30.10 in 7.0 mi Calm Calm - N/A   Overcast
1:55 AM 26.2 °F - 24.1 °F 92% 30.11 in 7.0 mi Calm Calm - N/A   Overcast
2:15 AM 26.6 °F 22.6 °F 23.9 °F 90% 30.11 in 10.0 mi NW 3.5 mph - N/A   Overcast
2:35 AM 26.6 °F 22.6 °F 23.9 °F 90% 30.12 in 10.0 mi NNW 3.5 mph - N/A   Overcast
2:55 AM 26.6 °F 22.6 °F 23.4 °F 88% 30.12 in 10.0 mi NW 3.5 mph - N/A   Overcast
3:15 AM 26.6 °F - 23.0 °F 86% 30.12 in 10.0 mi Calm Calm - N/A   Overcast
3:35 AM 27.0 °F 23.0 °F 22.1 °F 82% 30.13 in 10.0 mi NNW 3.5 mph - N/A   Overcast
3:55 AM 27.0 °F 21.6 °F 20.8 °F 78% 30.13 in 10.0 mi NNW 4.6 mph - N/A   Overcast
4:35 AM 27.0 °F 23.0 °F 19.4 °F 73% 30.15 in 10.0 mi North 3.5 mph - N/A   Overcast
4:55 AM 27.0 °F 21.6 °F 19.2 °F 73% 30.16 in 10.0 mi North 4.6 mph - N/A   Overcast
5:35 AM 27.0 °F 23.0 °F 18.5 °F 70% 30.18 in 10.0 mi North 3.5 mph - N/A   Overcast
5:55 AM 26.8 °F - 18.5 °F 71% 30.18 in 10.0 mi Calm Calm - N/A   Overcast
6:35 AM 26.6 °F - 18.7 °F 72% 30.20 in 10.0 mi Calm Calm - N/A   Overcast
6:55 AM 26.6 °F - 18.9 °F 73% 30.20 in 10.0 mi Calm Calm - N/A   Overcast
7:15 AM 26.8 °F 22.8 °F 18.7 °F 72% 30.21 in 10.0 mi North 3.5 mph - N/A   Overcast
7:35 AM 26.6 °F - 19.2 °F 74% 30.22 in 10.0 mi Calm Calm - N/A   Overcast
7:55 AM 26.6 °F - 19.4 °F 74% 30.23 in 10.0 mi Calm Calm - N/A   Overcast
8:15 AM 26.6 °F - 19.8 °F 75% 30.24 in 10.0 mi Calm Calm - N/A   Overcast
8:35 AM 26.6 °F 22.6 °F 19.4 °F 74% 30.25 in 10.0 mi NW 3.5 mph - N/A   Overcast
8:55 AM 26.8 °F 19.3 °F 18.9 °F 72% 30.25 in 10.0 mi WNW 6.9 mph - N/A   Overcast
9:15 AM 27.1 °F 19.7 °F 18.3 °F 69% 30.26 in 10.0 mi WNW 6.9 mph - N/A   Overcast
9:35 AM 27.3 °F 23.4 °F 18.1 °F 68% 30.26 in 10.0 mi NW 3.5 mph - N/A   Overcast
9:55 AM 27.1 °F 23.2 °F 19.0 °F 72% 30.27 in 10.0 mi WNW 3.5 mph - N/A   Overcast
10:15 AM 27.5 °F 23.6 °F 19.2 °F 71% 30.27 in 10.0 mi West 3.5 mph - N/A   Overcast
10:35 AM 27.9 °F - 18.9 °F 69% 30.27 in 10.0 mi Calm Calm - N/A   Overcast
10:55 AM 28.2 °F - 18.5 °F 67% 30.27 in 10.0 mi Calm Calm - N/A   Overcast
11:15 AM 28.4 °F 21.2 °F 18.9 °F 67% 30.27 in 10.0 mi West 6.9 mph - N/A   Overcast
11:35 AM 28.2 °F 20.2 °F 19.2 °F 69% 30.28 in 10.0 mi WNW 8.1 mph - N/A   Overcast
11:55 AM 28.2 °F 21.0 °F 19.4 °F 70% 30.28 in 10.0 mi West 6.9 mph - N/A   Overcast
12:15 PM 28.4 °F 20.4 °F 18.9 °F 67% 30.27 in 10.0 mi West 8.1 mph - N/A   Overcast
12:35 PM 28.4 °F 21.2 °F 19.0 °F 68% 30.27 in 10.0 mi West 6.9 mph - N/A   Overcast
12:55 PM 28.8 °F 20.9 °F 18.3 °F 65% 30.26 in 10.0 mi West 8.1 mph - N/A   Overcast
1:15 PM 29.1 °F 24.1 °F 19.0 °F 66% 30.25 in 10.0 mi West 4.6 mph - N/A   Overcast
1:35 PM 29.1 °F 20.0 °F 18.7 °F 65% 30.26 in 10.0 mi West 10.4 mph - N/A   Overcast
1:55 PM 29.3 °F 20.8 °F 18.3 °F 64% 30.26 in 10.0 mi West 9.2 mph - N/A   Overcast
2:15 PM 30.0 °F 21.7 °F 18.5 °F 62% 30.27 in 10.0 mi WSW 9.2 mph - N/A   Overcast
2:35 PM 28.8 °F 20.9 °F 18.3 °F 65% 30.27 in 10.0 mi West 8.1 mph - N/A   Mostly Cloudy
2:55 PM 29.5 °F 20.4 °F 18.1 °F 63% 30.27 in 10.0 mi West 10.4 mph - N/A   Mostly Cloudy
3:15 PM 29.7 °F 22.0 °F 18.5 °F 63% 30.26 in 10.0 mi West 8.1 mph - N/A   Scattered Clouds
3:35 PM 29.5 °F 21.1 °F 18.9 °F 65% 30.27 in 10.0 mi West 9.2 mph - N/A   Scattered Clouds
3:55 PM 28.6 °F 21.5 °F 18.5 °F 66% 30.27 in 10.0 mi West 6.9 mph - N/A   Scattered Clouds
4:15 PM 28.2 °F 20.2 °F 18.3 °F 66% 30.27 in 10.0 mi WSW 8.1 mph - N/A   Clear
4:35 PM 27.3 °F 19.9 °F 18.0 °F 68% 30.27 in 10.0 mi WSW 6.9 mph - N/A   Clear
4:55 PM 26.4 °F 20.9 °F 17.4 °F 69% 30.28 in 10.0 mi West 4.6 mph - N/A   Clear
5:15 PM 25.3 °F 21.1 °F 17.2 °F 71% 30.29 in 10.0 mi West 3.5 mph - N/A   Clear
5:35 PM 25.5 °F 19.9 °F 16.9 °F 70% 30.29 in 10.0 mi WSW 4.6 mph - N/A   Clear
5:55 PM 25.3 °F 21.1 °F 17.4 °F 72% 30.28 in 10.0 mi SW 3.5 mph - N/A   Clear
6:15 PM 25.0 °F 18.1 °F 17.1 °F 72% 30.27 in 10.0 mi SW 5.8 mph - N/A   Clear
6:35 PM 24.6 °F - 17.1 °F 73% 30.27 in 10.0 mi Calm Calm - N/A   Clear
6:55 PM 24.1 °F - 17.1 °F 75% 30.27 in 10.0 mi Calm Calm - N/A   Clear
7:15 PM 24.1 °F 19.7 °F 17.1 °F 75% 30.27 in 10.0 mi SSW 3.5 mph - N/A   Clear
7:35 PM 24.3 °F 18.4 °F 17.1 °F 74% 30.26 in 10.0 mi South 4.6 mph - N/A   Clear
7:55 PM 23.7 °F 16.6 °F 16.7 °F 75% 30.27 in 10.0 mi SSW 5.8 mph - N/A   Clear
8:15 PM 24.4 °F 20.1 °F 17.4 °F 75% 30.27 in 10.0 mi SSW 3.5 mph - N/A   Clear
8:35 PM 23.9 °F - 16.7 °F 74% 30.29 in 10.0 mi Calm Calm - N/A   Clear
9:15 PM 23.7 °F - 16.7 °F 75% 30.29 in 10.0 mi Calm Calm - N/A   Clear
9:35 PM 20.8 °F - 14.7 °F 77% 30.29 in 10.0 mi Calm Calm - N/A   Clear
9:55 PM 23.2 °F - 17.1 °F 77% 30.29 in 10.0 mi Calm Calm - N/A   Clear
10:15 PM 23.0 °F 18.4 °F 16.7 °F 77% 30.28 in 10.0 mi SSW 3.5 mph - N/A   Clear
10:35 PM 22.8 °F - 16.7 °F 77% 30.29 in 10.0 mi Calm Calm - N/A   Clear
10:55 PM 23.2 °F - 17.2 °F 78% 30.29 in 10.0 mi Calm Calm - N/A   Clear
11:15 PM 21.2 °F - 16.7 °F 83% 30.29 in 10.0 mi Calm Calm - N/A   Clear
11:35 PM 20.7 °F - 15.3 °F 80% 30.29 in 10.0 mi Calm Calm - N/A   Clear
11:55 PM 19.8 °F - 15.8 °F 85% 30.29 in 10.0 mi Calm Calm - N/A   Clear